Location: Ocean City
(38.3360°N, 75.0850°W)
Time: 11:29:27
(UTC-05:00)

Explorer 11/Cluster Stage 4 - Pass Details

Date: 15 November 2019
Orbit: 467 x 1259 km, 28.8° (Epoch: 09 December)

Event Time Altitude Azimuth Distance (km) Brightness Sun altitude
Rises 00:24:03 0° 260° (W) 4,007 - -68.3°
Reaches altitude 10° 00:26:58 10° 253° (WSW) 3,120 - -68.1°
Maximum altitude 00:34:16 40° 188° (S) 1,765 - -67.4°
Drops below altitude 10° 00:41:45 10° 122° (ESE) 3,200 - -66.5°
Sets 00:44:48 0° 116° (ESE) 4,119 - -66.2°
